Location: Caltech
(34.1382°N, 118.1253°W)
Time: 13:41:16
(UTC-07:00)

Iridium 21 - Visible Passes

Search period start: 30 April 2016 00:00
Search period end: 10 May 2016 00:00
Orbit: 776 x 779 km, 86.4° (Epoch: 30 April)

Date Brightness Start Highest point End Pass type
(mag) Time Alt. Az. Time Alt. Az. Time Alt. Az.
30 Apr 8.0 00:44:56 10° N 00:46:09 17° NNW 00:46:09 17° NNW visible
01 May 7.9 00:11:23 10° N 00:12:48 19° N 00:12:48 19° N visible
01 May 7.9 23:38:14 10° NNE 23:39:27 16° NNE 23:39:27 16° NNE visible
02 May 8.2 01:19:32 10° NW 01:19:56 12° NW 01:19:56 12° NW visible
02 May 8.1 23:05:43 10° NE 23:06:07 11° NE 23:06:07 11° NE visible
03 May 8.0 00:45:14 10° NNW 00:46:35 18° NNW 00:46:35 18° NNW visible
04 May 7.7 00:11:27 10° N 00:13:15 22° N 00:13:15 22° N visible
04 May 7.6 23:38:03 10° N 23:39:55 22° NNE 23:39:55 22° NNE visible
05 May 7.7 23:05:06 10° NNE 23:06:35 17° NE 23:06:35 17° NE visible
06 May 8.0 00:45:43 10° NNW 00:47:04 16° NW 00:47:04 16° NW visible
06 May 8.0 22:33:04 10° NE 22:33:16 11° NE 22:33:16 11° NE visible
07 May 7.6 00:11:39 10° NNW 00:13:45 24° NNW 00:13:45 24° NNW visible
07 May 7.3 23:38:01 10° N 23:40:25 28° N 23:40:25 28° N visible
08 May 7.3 23:04:47 10° NNE 23:07:07 24° NNE 23:07:07 24° NNE visible
09 May 8.1 00:46:28 10° NW 00:47:36 14° NW 00:47:36 14° NW visible
09 May 7.6 22:32:06 10° NNE 22:33:49 16° NE 22:33:49 16° NE visible
